[TLELIST] Archives

 

[list_settings.list_name] Current TLEs

January 9th 2014 PDT

HST 1 20580U 90037B 14008.45095572 .00003451 00000-0 22865-3 0 4123 2 20580 028.4717 006.4867 0003289 024.1519 108.2689 15.04478908100631 ISS (ZARYA) 1 25544U 98067A 14009.40519008 .00010772 00000-0 19463-3 0 4258 2 25544 051.6489 166.5879 0005435 009.7565 025.6324 15.50260959866695 CXO 1 25867U 99040B 14011.85883760 -.00000379 00000-0 00000+0 0 9812 2 25867 076.4500 327.9621 8324543 275.8651 000.3861 00.37800110 11320 ____________________________________________________________________ These 2-Line ...Continue Reading

[list_settings.list_name] Current TLEs

January 8th 2014 PDT

HST 1 20580U 90037B 14007.18258538 .00004736 00000-0 31827-3 0 4119 2 20580 028.4718 014.8116 0003192 011.9084 077.3123 15.04471044100437 ISS (ZARYA) 1 25544U 98067A 14008.44922119 .00010025 00000-0 18186-3 0 4186 2 25544 051.6486 171.3246 0005450 005.9360 090.7511 15.50236070866544 CXO 1 25867U 99040B 14009.21578124 -.00000567 00000-0 00000+0 0 9802 2 25867 076.4449 328.0879 8327628 275.9018 000.5456 00.37801176 11318 ____________________________________________________________________ These 2-Line ...Continue Reading

[list_settings.list_name] Current TLEs

January 7th 2014 PDT

HST 1 20580U 90037B 14007.18258538 .00004736 00000-0 31827-3 0 4119 2 20580 028.4718 014.8116 0003192 011.9084 077.3123 15.04471044100437 ISS (ZARYA) 1 25544U 98067A 14007.47058625 .00009877 00000-0 17944-3 0 4117 2 25544 051.6484 176.1745 0005398 002.7358 028.7648 15.50214978866390 CXO 1 25867U 99040B 14009.21578124 -.00000567 00000-0 00000+0 0 9802 2 25867 076.4449 328.0879 8327628 275.9018 000.5456 00.37801176 11318 ____________________________________________________________________ These 2-Line ...Continue Reading

[list_settings.list_name] Current TLEs

January 6th 2014 PDT

HST 1 20580U 90037B 14005.46883652 .00003412 00000-0 22603-3 0 4100 2 20580 028.4718 026.0598 0003074 353.9130 155.1779 15.04463497100183 ISS (ZARYA) 1 25544U 98067A 14006.44093328 .00010599 00000-0 19208-3 0 4042 2 25544 051.6481 181.2765 0005277 358.9447 042.5513 15.50196821866231 CXO 1 25867U 99040B 14006.57077286 -.00000553 00000-0 00000+0 0 9794 2 25867 076.4441 328.1926 8332827 275.9447 000.4650 00.37802203 11303 ____________________________________________________________________ These 2-Line ...Continue Reading

[list_settings.list_name] Current TLEs

January 5th 2014 PDT

HST 1 20580U 90037B 14004.19160663 .00003442 00000-0 22816-3 0 4096 2 20580 028.4716 034.4425 0003010 340.2027 077.6868 15.04457575 99989 ISS (ZARYA) 1 25544U 98067A 14005.47273759 .00010420 00000-0 18912-3 0 3977 2 25544 051.6485 186.0737 0005251 355.5693 039.1782 15.50174977866086 CXO 1 25867U 99040B 14006.57077286 -.00000553 00000-0 00000+0 0 9794 2 25867 076.4441 328.1926 8332827 275.9447 000.4650 00.37802203 11303 ____________________________________________________________________ These 2-Line ...Continue Reading

[list_settings.list_name] Current TLEs

January 4th 2014 PDT

HST 1 20580U 90037B 14004.19160663 .00003442 00000-0 22816-3 0 4096 2 20580 028.4716 034.4425 0003010 340.2027 077.6868 15.04457575 99989 ISS (ZARYA) 1 25544U 98067A 14004.50624698 .00009334 00000-0 17042-3 0 3900 2 25544 051.6484 190.8615 0005077 351.1206 046.4648 15.50149438865930 CXO 1 25867U 99040B 14006.57077286 -.00000553 00000-0 00000+0 0 9794 2 25867 076.4441 328.1926 8332827 275.9447 000.4650 00.37802203 11303 ____________________________________________________________________ These 2-Line ...Continue Reading

[list_settings.list_name] Current TLEs

January 3rd 2014 PDT

HST 1 20580U 90037B 14002.54543411 .00003278 00000-0 21678-3 0 4080 2 20580 028.4715 045.2473 0003010 322.2027 162.3747 15.04448356 99740 ISS (ZARYA) 1 25544U 98067A 14003.16489706 .00008475 00000-0 15564-3 0 3823 2 25544 051.6489 197.5078 0005009 346.3708 120.8691 15.50119463865727 CXO 1 25867U 99040B 14003.92462261 -.00000374 00000-0 00000+0 0 9781 2 25867 076.4356 328.3175 8339891 275.9683 000.2959 00.37801582 11293 ____________________________________________________________________ These 2-Line ...Continue Reading

[list_settings.list_name] Current TLEs

January 2nd 2014 PDT

HST 1 20580U 90037B 14001.48807890 .00002744 00000-0 17956-3 0 4076 2 20580 028.4715 052.1875 0002934 310.6602 195.9843 15.04442113 99583 ISS (ZARYA) 1 25544U 98067A 14002.50803571 .00008652 00000-0 15879-3 0 3769 2 25544 051.6487 200.7625 0004879 343.8362 055.4306 15.50108473865626 CXO 1 25867U 99040B 14003.92462261 -.00000374 00000-0 00000+0 0 9781 2 25867 076.4356 328.3175 8339891 275.9683 000.2959 00.37801582 11293 ____________________________________________________________________ These 2-Line ...Continue Reading

[list_settings.list_name] Current TLEs

January 1st 2014 PDT

HST 1 20580U 90037B 13364.62755148 .00002423 00000-0 15716-3 0 4066 2 20580 028.4714 064.3987 0002817 289.2595 200.9379 15.04432117 99307 ISS (ZARYA) 1 25544U 98067A 14001.41747308 .00008531 00000-0 15680-3 0 3691 2 25544 051.6488 206.1647 0004876 340.4639 089.0593 15.50088337865456 CXO 1 25867U 99040B 14003.92462261 -.00000374 00000-0 00000+0 0 9781 2 25867 076.4356 328.3175 8339891 275.9683 000.2959 00.37801582 11293 ____________________________________________________________________ These 2-Line ...Continue Reading

[list_settings.list_name] Current TLEs

December 31st 2013 PDT

HST 1 20580U 90037B 13364.62755148 .00002423 00000-0 15716-3 0 4066 2 20580 028.4714 064.3987 0002817 289.2595 200.9379 15.04432117 99307 ISS (ZARYA) 1 25544U 98067A 13365.45025208 .00008234 00000-0 15172-3 0 3613 2 25544 051.6486 210.9574 0004864 337.4188 091.1646 15.50069593865308 CXO 1 25867U 99040B 14001.27784750 -.00000314 00000-0 00000+0 0 9770 2 25867 076.4238 328.4623 8345853 275.9677 000.1146 00.37800793 11288 ____________________________________________________________________ These 2-Line ...Continue Reading
  • This mailing list is a public mailing list - anyone may join or leave, at any time.
  • This mailing list is announce-only.

International Space Station (ISS) / Hubble Space Telescope (HST) / Chandra X-Ray Observatory Orbital Data via EMAIL

Privacy Policy:

Private list